Theta_e
309 309 308 308 309 310 311 310 310 309 308 307 307 308 308 308 309 309 309 309 308 307 306 307 308 308 309 310 309 309 310 312 312 312 313 314 314 315 315 317 318 319 320 323 325 329 335 338 336 333 331 333 339 343 344 346 346 346 346 347 346 345 345 344 343 342 342 343 343 343 343 342 342 341 341 340 339 338 339 339 338 337 335 334 333 332 331
311 310 310 310 310 311 311 311 310 310 310 309 308 308 308 308 309 308 309 310 310 309 308 308 309 310 309 309 310 310 311 311 312 313 314 315 315 315 316 317 317 318 319 321 324 328 335 340 339 335 332 333 337 341 343 344 346 346 346 346 346 345 344 343 343 342 342 342 343 342 342 342 342 341 340 339 338 338 338 338 337 336 335 333 332 332 330
312 311 311 311 311 311 311 310 310 310 311 311 310 310 309 309 308 309 309 310 310 309 309 309 310 310 309 309 309 309 310 311 312 314 315 315 316 316 316 316 317 318 319 320 321 325 333 341 342 336 333 333 336 340 343 344 345 346 346 346 346 344 343 343 342 342 341 342 342 342 342 342 341 340 340 339 338 338 338 337 337 335 334 333 332 331 329
314 312 312 312 312 311 311 311 312 312 312 313 312 312 311 310 310 310 310 309 309 309 309 309 310 309 309 309 308 309 310 312 313 315 315 316 317 317 318 319 319 320 320 320 320 322 329 338 343 338 333 333 336 340 343 344 345 346 346 346 344 343 342 342 342 341 342 342 342 342 341 342 341 340 339 338 338 338 337 337 336 335 333 333 331 330 328
315 313 313 313 312 313 314 314 313 313 314 314 314 313 313 312 311 310 310 309 309 310 310 310 310 310 310 310 310 310 312 314 315 316 317 317 318 320 321 322 322 322 322 321 321 323 327 333 340 341 336 333 336 340 342 344 345 345 345 345 343 342 342 342 341 341 342 342 341 341 341 341 340 339 338 337 337 337 337 337 335 334 333 332 331 329 328
315 314 314 313 314 317 317 314 312 313 314 314 315 315 314 314 312 310 310 310 310 310 310 310 311 311 312 311 311 312 314 316 317 318 319 319 320 321 322 322 322 323 323 322 323 325 327 330 336 341 339 335 336 339 342 343 344 345 344 344 343 341 341 341 341 341 342 342 341 341 340 340 339 338 337 337 337 337 337 336 335 334 333 331 330 329 328
314 314 315 316 317 318 316 314 312 312 312 311 313 314 314 314 314 312 312 312 311 312 312 312 312 313 313 313 314 315 316 316 316 317 320 321 321 322 323 323 323 324 324 324 326 327 328 330 334 340 341 338 337 339 341 342 344 344 344 343 342 341 340 341 341 341 341 341 341 340 339 339 338 337 337 336 337 337 337 336 335 334 332 330 329 329 328
315 315 316 318 318 317 316 314 313 312 312 311 313 315 314 313 314 316 316 315 314 314 314 314 314 314 315 316 316 317 316 314 315 318 320 321 322 323 323 323 324 325 326 327 327 327 328 329 333 338 341 340 339 340 341 342 343 342 342 341 341 341 340 341 341 341 341 341 340 340 339 338 338 337 336 336 336 337 337 335 334 334 332 329 328 328 327
315 316 316 317 317 317 317 316 314 314 313 312 313 315 315 313 312 313 314 315 315 315 315 315 315 316 318 319 318 317 316 316 317 318 320 321 322 322 323 324 326 327 327 328 328 328 328 328 331 337 340 340 340 341 342 342 342 341 340 340 340 341 341 341 341 341 340 340 341 340 338 337 337 336 336 336 337 336 336 336 334 332 331 329 328 327 326
315 315 317 317 317 318 317 317 316 315 314 313 312 312 314 313 310 310 311 312 314 315 316 316 316 317 319 319 318 317 318 318 319 320 320 322 322 322 324 325 326 327 327 328 328 327 327 327 330 336 340 340 339 341 342 342 341 341 340 340 341 341 341 341 340 340 340 340 340 339 338 337 336 336 336 336 336 335 335 336 334 332 330 329 328 326 325
315 315 317 317 317 318 316 316 316 315 315 315 313 313 315 313 310 309 310 310 312 314 315 315 315 317 319 319 318 318 320 321 322 322 321 322 322 323 324 326 327 328 328 329 328 327 327 326 328 335 341 341 339 340 340 341 341 341 340 340 341 341 341 340 340 340 340 340 340 338 337 337 336 336 336 336 335 334 334 334 333 331 330 329 328 326 325
315 315 316 316 316 317 316 316 315 314 314 315 315 317 318 316 312 312 310 309 311 313 314 314 315 316 318 318 318 319 320 320 321 321 320 321 322 323 325 326 327 328 329 329 329 328 326 326 329 336 341 341 340 340 340 340 341 341 341 340 341 341 341 341 340 340 341 340 339 338 337 337 336 335 335 335 334 334 333 332 331 330 329 328 327 326 324
314 315 315 314 315 316 316 315 314 314 314 317 318 319 319 317 317 317 314 312 313 314 315 315 315 316 317 317 317 319 319 319 320 320 320 322 323 324 326 327 327 328 329 329 329 327 325 327 332 338 341 341 341 341 340 341 341 341 340 340 341 341 341 341 340 341 341 340 338 337 337 336 335 334 334 334 334 333 333 333 332 330 329 327 326 325 325
315 315 315 314 314 315 315 315 313 313 316 319 319 318 317 317 318 318 317 316 317 317 318 318 318 317 317 317 318 318 318 319 320 319 319 321 323 325 326 327 327 328 330 330 330 326 325 328 334 338 340 341 341 341 341 341 341 341 341 341 341 341 341 341 341 341 340 339 338 337 336 336 335 334 334 335 334 333 333 333 332 330 328 326 326 327 325
315 314 315 315 315 315 315 314 314 314 316 318 318 317 317 318 317 317 317 317 318 318 319 319 320 320 319 319 319 319 319 320 320 320 321 322 323 324 325 326 327 329 330 331 330 327 326 329 334 337 339 340 341 341 341 341 341 341 341 341 341 341 341 341 341 340 340 338 337 337 336 335 335 334 334 334 334 332 332 332 331 329 327 326 326 326 324
315 315 315 315 314 314 314 314 313 314 315 316 317 317 317 317 316 316 317 318 318 318 318 319 319 320 320 320 319 319 320 320 320 321 322 322 323 324 325 327 328 329 330 331 330 327 327 330 334 336 338 340 341 341 341 341 341 341 341 340 341 341 341 341 340 340 339 338 337 336 336 335 335 334 333 333 333 332 331 330 329 328 326 326 325 323 321
315 314 313 313 313 312 312 311 312 313 313 314 315 315 316 316 316 316 316 317 317 317 318 318 319 319 320 320 320 320 320 320 321 322 322 323 324 325 326 328 329 328 330 331 330 328 327 330 334 336 337 338 340 341 340 340 340 341 340 340 341 341 340 340 339 339 338 338 337 336 335 335 335 334 333 332 331 331 330 329 328 327 326 325 323 321 320
312 312 312 312 312 310 310 310 310 312 312 313 313 315 316 315 314 315 315 315 315 316 317 318 318 319 320 320 320 320 320 321 321 322 323 324 326 327 328 329 329 330 331 332 331 329 329 331 333 336 336 337 338 339 339 340 340 340 340 340 340 340 340 339 339 338 338 337 337 336 335 335 335 334 333 332 331 330 329 327 326 326 324 323 322 321 320
311 312 312 311 310 309 309 309 309 310 311 310 312 315 315 313 313 315 315 314 315 315 316 317 318 319 320 320 320 320 320 322 323 324 325 326 327 327 328 328 329 330 332 332 331 331 330 331 334 336 337 336 337 338 338 339 339 339 340 340 339 339 339 339 339 338 338 337 336 335 334 334 334 333 333 333 331 328 327 326 325 324 322 321 321 321 320
311 312 310 309 308 307 308 308 309 309 309 309 311 313 312 311 314 315 315 315 315 315 316 317 317 318 320 320 321 321 322 324 324 325 325 326 325 325 326 328 329 331 333 333 333 332 331 333 335 337 336 336 336 337 338 338 338 339 339 339 338 338 338 338 338 339 338 337 336 335 334 334 334 333 333 332 329 327 327 326 325 323 321 321 320 319 318
310 310 309 308 307 307 307 307 308 309 308 309 310 310 308 310 313 315 315 315 316 316 316 317 316 318 320 320 320 321 323 324 324 324 324 324 323 323 325 327 329 331 334 334 334 334 334 334 335 336 335 335 336 337 337 337 337 338 339 338 338 338 338 338 338 338 337 336 336 336 335 334 334 334 333 331 328 328 327 327 327 326 323 322 321 319 318
309 309 308 307 307 307 306 307 308 308 308 308 308 307 307 309 312 314 314 315 316 316 317 317 316 316 319 320 321 321 322 322 322 323 323 323 323 323 324 327 329 331 332 333 333 333 334 334 334 334 334 334 335 336 337 337 337 338 338 338 338 338 338 338 338 337 336 335 335 335 335 333 332 332 332 331 330 329 329 328 328 327 326 325 322 320 319
307 307 306 305 305 305 305 306 307 308 308 307 307 307 308 309 310 312 314 315 316 317 317 317 316 316 317 319 320 320 320 320 320 321 322 324 323 323 324 326 328 330 331 331 331 332 332 332 333 333 334 334 334 335 335 335 336 337 338 338 337 337 337 337 336 336 336 335 334 333 332 331 330 330 329 329 328 329 329 329 327 326 326 325 324 322 321
305 305 304 304 303 303 304 305 306 307 307 306 306 307 307 306 307 311 314 316 317 318 318 317 316 315 316 317 318 319 320 319 318 318 321 323 324 324 324 324 325 327 329 329 329 330 330 330 331 331 331 331 332 333 335 335 336 337 337 337 336 336 337 336 335 335 336 335 333 331 329 328 328 328 326 323 322 323 324 326 325 324 324 324 323 322 321
304 304 302 302 302 303 304 305 305 306 306 306 306 306 306 306 307 310 314 316 316 316 318 317 316 316 316 316 317 318 319 319 317 317 319 322 323 323 323 323 323 325 327 327 327 328 328 329 329 329 328 328 328 330 331 333 334 335 336 336 335 335 335 335 333 333 334 333 330 329 328 327 327 326 323 321 318 316 317 319 321 321 322 322 321 321 319
302 302 301 300 301 302 303 304 304 304 305 306 305 305 305 307 307 309 313 315 314 314 316 318 317 316 316 316 316 317 318 318 318 318 319 320 322 322 323 323 323 323 325 325 325 325 326 327 327 326 325 325 326 327 328 329 331 333 334 334 334 334 333 333 331 331 331 330 328 326 326 326 325 323 322 320 318 314 313 314 315 315 316 318 318 319 318
301 300 300 300 302 302 302 302 303 303 304 305 304 304 305 307 308 310 312 313 313 314 315 316 317 316 316 317 317 317 317 317 318 319 319 318 320 321 322 322 323 323 324 324 324 323 324 325 325 324 323 323 324 325 326 326 328 329 330 330 331 331 331 331 330 330 329 328 327 326 325 324 323 322 321 320 317 314 312 313 313 312 312 314 315 316 316
300 299 299 300 301 301 301 302 303 303 304 304 304 304 305 306 306 308 309 310 311 313 314 314 315 315 315 317 318 318 317 317 318 319 319 318 319 320 320 320 321 321 322 322 322 322 323 323 323 323 322 322 323 324 324 325 326 326 327 327 326 326 326 327 327 327 327 326 326 325 324 323 323 321 320 318 316 314 313 313 312 311 310 311 312 313 314
298 298 298 299 299 300 301 301 302 303 303 303 304 304 304 304 305 306 307 307 308 310 312 313 314 314 314 316 318 318 318 317 317 318 319 318 319 319 318 318 319 319 319 320 321 321 322 322 321 321 321 320 321 322 323 323 324 325 324 324 324 323 323 323 323 324 324 324 323 323 322 321 320 319 318 316 315 314 313 312 311 310 310 310 310 311 311
297 297 298 298 298 299 299 300 300 301 301 301 302 302 302 302 303 304 304 305 306 308 310 312 313 313 314 316 318 318 318 317 316 317 318 317 317 318 318 318 318 318 318 318 319 319 321 321 320 320 320 320 320 320 320 321 321 321 321 321 321 321 321 321 321 321 322 321 321 320 319 318 317 316 315 314 313 313 312 312 311 310 309 308 308 308 308
297 298 298 299 298 297 298 298 299 299 299 299 300 300 301 301 301 302 303 303 304 305 308 310 311 312 313 316 317 318 319 318 317 317 317 316 317 318 319 318 317 317 317 317 317 317 319 319 319 319 319 319 319 319 318 318 318 317 317 318 319 319 320 319 319 319 319 318 317 317 316 315 314 313 312 312 312 312 312 312 311 310 309 307 307 307 307
297 298 298 298 297 296 296 297 297 298 298 298 299 299 300 300 301 301 301 302 303 305 307 309 310 311 313 315 317 318 318 318 317 317 317 317 317 317 319 319 318 317 316 316 316 316 316 317 317 318 318 319 318 317 317 316 315 315 315 315 316 316 317 317 317 316 316 315 314 314 314 313 312 311 311 311 311 312 311 311 310 309 308 308 308 307 307
296 297 297 296 296 296 296 296 296 297 297 298 298 298 299 300 300 300 300 301 303 304 306 307 309 311 313 314 316 317 317 317 317 316 317 318 316 316 318 319 319 318 316 314 314 315 315 314 313 315 317 317 317 316 316 315 314 313 313 313 313 313 313 314 314 314 313 312 313 312 312 311 311 311 311 311 311 311 310 309 309 308 308 309 309 307 306
296 296 296 296 296 296 295 295 296 296 297 297 298 298 299 300 300 300 301 301 302 303 303 304 307 311 314 314 315 316 316 315 315 316 316 316 315 314 315 316 317 317 316 313 311 311 312 312 311 312 315 315 314 314 315 315 313 312 312 312 311 311 311 312 312 311 311 310 310 310 310 310 310 310 310 310 310 310 310 309 308 308 308 309 308 306 305
296 296 296 296 296 296 296 296 296 296 296 296 297 298 299 300 300 300 300 301 301 301 301 302 305 310 313 314 314 314 314 313 314 315 315 315 314 313 312 312 312 313 315 313 309 307 309 311 312 313 314 313 313 312 313 314 313 312 311 311 311 310 310 310 310 310 309 309 309 309 309 309 309 309 309 309 308 308 308 307 307 307 308 307 306 304 304
296 296 296 296 296 296 296 296 296 296 296 296 297 297 298 299 299 299 299 300 300 300 300 300 302 308 312 313 313 313 313 312 313 314 314 314 313 312 310 309 308 308 311 311 307 304 305 309 312 314 314 313 312 311 311 312 312 312 312 312 311 309 309 309 309 309 309 309 308 308 308 308 308 308 308 307 307 307 306 306 306 307 307 306 304 303 303
296 296 296 296 296 296 296 296 296 296 297 297 297 297 297 297 297 297 298 299 299 298 298 298 300 304 309 311 311 311 310 310 310 312 313 313 313 310 308 306 305 304 305 305 303 302 304 307 312 315 315 314 312 311 311 311 311 311 312 312 311 310 309 309 308 308 307 307 307 307 307 307 307 307 307 307 306 306 306 306 306 306 306 304 303 302 302
295 295 295 296 295 295 295 295 295 296 296 296 296 296 296 295 295 296 297 297 297 296 297 297 298 300 303 307 309 309 308 307 307 308 310 312 312 310 307 305 303 301 300 299 299 300 303 306 310 313 315 314 313 312 311 311 311 311 311 311 311 311 310 309 308 307 307 307 307 307 307 307 307 307 307 306 306 305 305 305 305 306 305 303 302 301 301
294 294 295 295 295 295 295 295 295 295 295 295 296 295 294 294 294 295 295 296 296 295 295 296 297 298 299 302 305 307 306 305 305 306 307 309 311 311 308 304 302 299 297 297 298 300 301 304 307 309 311 311 312 311 311 312 312 312 311 311 310 310 310 309 309 309 308 308 308 308 308 308 308 308 307 306 305 305 305 305 305 305 304 303 302 302 301
294 294 294 294 295 295 294 294 294 295 295 295 295 294 294 293 293 294 294 294 294 294 294 294 295 296 297 298 301 303 302 302 304 305 304 305 307 309 308 304 300 298 297 297 298 299 300 302 304 306 307 308 309 309 310 312 312 312 312 311 310 310 310 310 309 309 309 309 309 310 310 309 309 309 308 307 306 305 305 305 304 304 304 303 302 302 302
294 294 294 294 294 294 294 294 294 294 294 294 294 294 293 293 293 293 293 293 293 293 293 293 293 293 294 295 297 299 299 299 300 303 303 302 302 304 304 302 298 296 295 295 296 298 299 300 301 303 306 308 309 309 310 312 313 312 313 313 312 311 310 310 309 309 309 310 311 312 312 311 311 310 310 309 308 307 306 305 305 304 304 304 303 303 302
293 293 293 293 293 293 293 293 293 293 293 293 293 293 292 292 292 292 291 292 291 291 292 292 292 291 292 293 294 296 297 297 297 299 301 301 298 297 297 296 295 293 292 293 295 297 297 296 298 300 303 306 308 310 310 311 312 312 312 313 314 313 312 311 310 310 311 311 312 312 312 312 312 312 311 311 310 309 308 307 306 305 305 304 304 303 303
292 292 293 293 292 292 293 293 293 293 293 293 293 292 292 292 291 291 291 291 290 290 290 290 290 290 290 291 292 293 295 296 295 296 298 299 297 294 292 291 291 290 289 290 293 295 294 292 294 298 301 304 307 309 310 311 311 311 311 312 313 313 313 313 312 312 312 312 312 312 312 312 312 312 311 311 311 310 309 308 307 306 305 305 305 305 304
292 292 292 292 292 292 292 292 292 292 292 292 292 292 291 291 291 290 290 290 290 289 289 289 289 289 289 289 290 291 293 294 293 293 294 295 295 293 290 288 288 288 287 288 290 292 291 289 291 295 299 302 304 306 307 308 309 310 311 311 311 312 312 313 313 313 312 312 312 312 312 312 313 313 312 312 311 310 309 309 308 307 306 306 306 305 305
291 291 291 291 291 291 291 291 291 291 291 292 292 291 291 290 290 290 289 289 289 289 288 288 288 288 287 287 288 289 290 292 292 291 290 290 291 291 289 287 286 286 286 288 288 288 287 288 290 293 296 299 300 301 302 302 303 304 306 307 308 308 308 309 310 311 311 311 311 312 313 313 313 313 313 312 312 311 310 310 309 308 308 307 306 306 306
291 291 291 291 291 291 290 290 290 290 290 291 291 291 291 290 290 289 289 288 289 289 288 287 287 287 286 286 286 286 287 289 290 290 288 287 288 288 287 286 285 285 286 288 288 286 285 287 289 292 294 296 297 297 297 297 298 298 299 300 300 301 302 303 304 305 306 307 309 310 311 312 312 311 311 311 311 310 310 310 309 309 309 308 307 306 306
290 290 290 290 290 290 290 289 289 289 290 290 290 290 290 290 289 289 288 288 288 288 288 287 287 286 286 285 285 285 285 286 288 288 286 285 286 286 286 285 284 284 286 288 288 285 284 285 287 289 291 292 293 292 292 293 293 294 294 294 295 295 296 297 298 299 301 303 305 306 307 308 309 309 309 309 310 310 310 310 310 310 309 308 307 307 306
290 290 290 290 290 290 289 289 289 289 289 289 289 289 289 290 289 288 287 287 287 288 288 287 286 286 285 285 284 284 283 284 285 286 285 284 285 285 285 284 283 284 285 288 288 286 284 284 285 287 288 288 288 288 288 288 288 289 289 290 290 291 291 292 293 294 295 297 299 301 302 303 303 304 304 305 305 305 307 308 308 308 308 308 308 307 307
289 289 289 289 289 289 289 289 289 288 288 288 288 288 289 289 289 289 288 287 287 287 287 287 286 285 285 284 284 283 283 283 283 283 283 283 283 283 283 283 283 283 284 286 287 286 285 284 284 285 286 286 285 285 286 286 285 285 285 286 286 287 288 288 289 291 292 292 293 294 295 296 296 297 298 299 299 300 300 301 302 303 304 306 306 307 307
288 288 289 289 289 288 288 288 288 288 287 287 287 288 288 288 289 288 287 286 286 286 286 286 286 285 284 284 283 283 282 282 282 282 282 282 282 281 281 282 282 282 283 283 284 284 284 283 283 284 285 285 284 283 284 284 284 284 284 284 284 285 286 287 288 288 289 289 290 291 292 292 293 293 294 294 295 296 297 297 298 299 300 301 301 302 303
288 288 288 288 288 287 287 287 287 287 286 286 287 287 287 288 288 288 287 286 286 285 285 285 285 284 283 283 283 282 282 281 281 281 280 280 280 280 280 280 281 281 281 281 282 282 282 282 282 283 284 284 283 283 283 283 282 282 282 283 283 283 284 284 285 285 286 286 287 288 289 289 290 291 291 291 292 293 293 294 294 295 296 296 296 297 298
287 287 287 286 286 287 287 287 286 286 286 286 286 286 286 287 287 287 286 286 285 285 284 284 285 284 283 282 282 282 281 281 280 280 280 280 279 279 279 279 279 280 280 280 280 280 280 280 280 281 281 282 282 282 282 283 283 282 282 282 282 282 282 282 282 283 283 284 285 285 286 287 287 288 289 289 289 290 291 291 291 292 293 293 293 294 295
Wind_Speed
16 16 15 14 12 12 13 16 19 20 20 20 19 18 18 16 14 15 16 17 19 19 18 18 17 15 15 15 16 15 13 11 13 15 15 15 15 16 15 13 11 10 9 8 8 8 9 11 14 17 19 21 22 22 23 24 26 26 26 27 28 29 29 29 30 31 33 35 35 34 35 35 34 35 36 34 34 34 32 30 28 27 28 27 27 26 24
18 17 15 16 16 15 15 18 20 20 21 22 21 21 21 21 22 22 21 22 22 20 19 18 16 15 15 16 16 16 15 16 16 17 15 15 16 17 16 15 12 10 9 9 9 9 9 10 13 16 18 21 22 22 23 23 24 25 26 27 28 28 28 29 29 30 32 33 34 34 34 33 34 36 37 36 36 34 32 30 27 26 27 27 27 28 26
15 14 12 14 16 17 18 20 21 20 21 22 21 20 20 20 22 24 23 23 22 20 19 19 18 17 17 18 19 19 18 17 16 16 15 15 16 17 17 16 14 11 11 11 11 11 10 11 13 15 17 20 22 23 24 25 25 26 26 27 28 29 29 28 28 29 31 31 34 35 33 32 34 36 37 37 37 34 31 31 27 25 27 27 27 28 27
12 9 8 10 12 15 18 19 19 18 17 17 16 17 18 18 21 22 20 19 17 16 15 17 18 18 18 19 20 18 17 17 16 15 15 15 16 16 16 15 14 13 13 13 13 12 11 11 13 15 17 20 21 23 25 25 25 26 26 27 28 28 28 28 28 29 30 31 34 35 32 31 32 35 37 38 37 34 32 32 29 26 27 26 26 28 28
11 8 5 4 6 9 11 9 9 11 12 14 16 17 18 20 19 17 15 15 16 16 14 14 16 16 16 16 16 16 16 16 14 14 15 16 16 15 14 14 14 14 14 13 13 12 12 13 13 14 16 19 21 22 24 24 24 25 27 27 26 27 27 27 29 30 31 32 34 34 30 28 32 37 39 39 37 34 32 32 29 26 26 26 26 29 30
11 11 6 3 5 6 3 1 5 9 11 15 17 17 18 18 17 15 16 17 18 18 17 17 17 16 15 16 16 16 15 13 13 15 16 16 16 15 14 14 15 14 12 12 13 14 15 15 14 14 15 17 19 20 21 22 23 25 26 26 25 26 27 28 30 31 33 33 32 32 29 28 34 40 40 39 37 34 31 30 29 27 26 26 26 29 32
9 12 8 5 5 3 0 1 5 8 10 11 14 16 17 17 17 17 19 21 21 21 19 18 17 17 18 19 18 17 16 15 15 16 17 17 16 14 12 14 14 12 11 12 13 15 16 16 14 14 15 16 18 19 20 23 24 25 26 25 25 26 27 29 31 32 33 33 32 32 32 32 37 41 39 39 38 34 32 30 28 27 26 26 29 32 33
7 9 7 6 5 2 1 2 4 6 7 8 9 11 12 12 13 16 17 19 20 20 20 18 17 18 19 18 16 17 18 18 18 17 17 17 15 11 10 12 13 12 12 13 15 16 16 15 14 14 15 15 17 19 21 23 23 24 25 25 26 27 28 30 32 32 34 34 33 34 35 38 42 42 39 38 37 35 34 30 26 24 24 26 30 34 35
5 7 8 8 8 3 1 2 4 4 6 6 6 7 6 5 7 12 15 17 18 19 19 18 16 15 15 14 15 17 19 19 19 18 17 15 13 10 10 12 14 15 15 16 17 17 17 16 15 15 15 16 18 19 20 21 23 24 24 25 26 28 29 32 33 33 35 34 32 34 39 43 43 39 36 36 36 34 32 29 26 25 24 23 27 30 32
4 8 8 7 8 6 5 6 6 4 8 10 8 7 6 3 5 10 12 14 16 16 16 15 13 11 11 12 13 13 12 12 12 12 12 11 11 11 10 11 14 17 17 17 17 17 17 17 16 15 15 17 19 20 20 21 22 23 24 26 28 29 30 33 34 35 36 34 33 37 42 41 36 33 33 34 35 35 33 30 28 26 24 22 23 25 28
5 8 7 7 6 4 7 13 14 14 15 11 5 5 4 4 8 11 11 11 14 14 15 14 12 10 10 12 10 7 5 5 5 8 10 11 11 12 12 12 13 16 17 17 18 19 19 18 17 15 16 17 19 21 21 21 22 23 25 27 29 29 31 32 33 34 34 33 35 38 39 35 31 31 33 33 35 37 36 31 26 24 24 24 24 23 26
7 9 7 6 4 3 9 17 20 21 20 11 2 3 5 3 6 10 11 13 15 15 15 13 11 10 11 11 9 7 7 9 10 11 13 13 12 12 13 13 14 16 17 16 17 18 19 17 16 15 15 17 19 21 21 22 23 24 26 28 28 29 30 31 32 32 31 33 36 36 33 30 28 28 29 31 35 37 33 27 24 24 25 26 25 23 22
10 9 8 7 4 3 8 18 22 22 17 9 6 9 11 13 14 9 6 10 13 13 13 12 10 11 14 14 13 13 14 15 15 14 14 14 14 13 13 13 14 16 16 16 16 19 18 15 13 14 15 16 18 19 20 21 23 24 25 26 26 27 29 30 31 30 31 35 36 33 29 27 26 27 31 32 33 32 29 26 25 25 26 26 26 23 21
9 8 9 9 5 2 10 20 20 15 10 8 9 11 12 15 17 15 10 10 11 11 11 10 10 13 17 18 17 17 16 16 16 15 15 14 14 14 13 13 14 15 15 15 16 18 18 14 13 14 15 15 16 17 18 20 21 22 23 24 25 26 27 29 30 30 32 34 32 30 29 27 26 31 34 34 31 28 28 29 27 25 25 24 25 25 22
8 8 9 8 6 7 16 20 14 8 8 9 10 12 13 14 16 15 13 12 12 13 14 14 14 15 16 16 17 16 15 15 15 15 15 14 13 13 13 14 15 14 14 14 14 16 16 13 12 14 15 15 15 16 17 18 19 19 21 23 24 24 25 27 30 31 32 32 31 30 30 29 31 33 31 31 32 28 26 28 28 25 23 24 25 25 22
5 7 7 6 8 11 15 13 9 10 13 11 12 14 14 13 14 14 12 13 14 15 15 16 16 15 13 13 15 14 14 14 14 14 13 13 13 13 13 14 15 15 14 14 13 14 14 12 11 13 14 14 15 15 16 17 17 18 20 22 23 22 23 26 28 29 28 29 32 33 31 31 35 35 29 28 31 28 24 25 26 23 22 23 24 24 22
4 5 7 9 10 13 14 11 11 15 18 16 15 16 13 12 13 13 12 13 16 17 17 17 16 14 11 10 11 12 12 12 13 13 13 12 12 12 13 14 15 14 14 13 12 14 14 12 11 12 13 13 13 14 15 16 17 18 21 23 23 23 22 24 26 27 25 26 29 32 32 35 37 33 27 24 25 26 25 24 22 20 22 23 22 22 21
8 5 7 10 13 16 17 15 13 15 17 16 15 14 13 13 13 12 12 14 15 17 18 16 14 12 10 8 9 10 10 12 12 12 12 11 10 10 11 12 12 13 14 13 12 12 12 11 10 11 12 12 13 14 15 16 17 20 22 22 22 21 21 22 24 25 25 26 27 29 34 38 35 28 27 27 26 25 24 22 22 21 21 21 21 21 20
10 7 7 13 17 19 19 17 16 18 19 18 16 13 13 14 15 14 14 14 15 17 18 15 13 12 10 8 8 8 9 11 11 10 10 9 8 9 10 10 10 11 11 10 9 9 9 9 8 9 10 11 12 12 13 15 16 18 20 20 19 19 20 22 24 24 23 24 25 28 34 36 29 25 28 31 29 27 23 21 21 21 21 22 22 21 21
10 9 12 18 19 18 16 14 15 17 20 21 19 16 15 17 16 16 16 15 13 14 17 16 14 12 9 8 7 7 8 8 8 7 8 8 7 9 10 10 9 9 9 7 6 6 6 5 5 4 7 9 10 10 12 14 15 16 18 18 16 17 18 21 23 24 24 24 24 26 32 33 27 26 29 29 29 30 29 28 26 23 21 23 24 23 22
10 9 14 19 17 14 14 16 18 19 20 20 19 19 20 21 19 18 18 17 14 14 17 18 16 13 11 10 9 8 7 7 6 7 8 6 4 7 10 9 5 4 4 2 2 2 2 1 2 2 4 8 10 10 11 13 14 15 16 16 16 17 19 19 19 19 21 23 23 23 28 30 28 27 29 27 26 28 31 35 36 31 26 25 24 24 27
8 10 15 17 13 11 14 19 22 22 22 20 19 20 21 22 20 18 18 17 16 15 16 16 15 15 16 14 11 9 9 9 9 9 8 5 1 4 7 5 2 2 2 3 3 2 2 3 2 1 3 6 8 10 11 12 12 12 15 15 16 17 19 19 17 15 16 18 19 21 25 26 24 24 24 24 25 28 31 36 39 37 33 32 30 29 33
9 13 16 15 12 13 16 20 22 22 21 20 21 21 20 20 19 18 17 17 16 14 15 16 15 16 17 17 15 12 10 10 11 10 9 6 3 2 5 6 7 7 7 7 7 6 6 5 5 4 2 3 4 6 9 10 10 11 14 13 13 15 17 16 15 15 14 13 15 18 22 23 22 21 20 20 23 27 31 35 36 35 34 35 35 35 37
12 14 15 15 15 16 18 21 22 20 19 20 22 21 19 19 19 17 16 16 14 11 13 16 16 16 16 17 16 14 12 12 12 11 11 10 8 6 8 10 10 9 9 9 9 8 8 6 5 3 2 2 3 4 5 7 9 10 12 12 11 13 14 14 16 19 16 14 16 19 19 20 22 21 17 15 15 16 20 27 32 34 34 34 35 37 37
11 12 14 17 17 17 17 17 17 17 19 20 20 19 19 19 20 18 16 15 14 12 12 13 16 18 17 14 13 14 14 14 15 15 13 12 10 10 11 12 11 10 10 11 11 10 10 9 8 6 5 6 5 4 3 4 6 8 10 10 11 13 12 12 16 20 18 17 20 22 20 19 22 21 16 14 13 12 13 18 23 28 32 33 34 35 35
11 12 16 18 15 13 13 14 15 18 22 22 19 18 20 21 21 19 16 13 15 16 13 10 13 19 19 16 14 15 15 15 17 17 13 10 9 10 11 12 11 10 10 11 13 14 12 11 11 10 9 9 7 6 4 3 3 6 9 11 11 12 13 13 14 17 18 18 21 22 22 21 22 21 18 18 18 19 19 17 16 19 23 26 28 31 32
10 11 15 17 14 13 15 17 18 21 22 21 19 19 21 22 21 19 17 18 20 21 18 15 14 16 18 19 17 16 16 16 16 14 11 10 11 12 14 15 15 13 13 13 14 15 14 12 12 12 12 10 9 7 6 5 3 2 4 6 7 9 14 15 13 13 16 18 19 21 21 21 21 22 21 21 22 23 22 19 17 18 20 22 24 27 29
11 12 13 13 14 17 19 19 19 19 19 20 20 20 20 22 20 18 18 21 21 20 20 21 19 15 14 15 15 13 12 12 11 9 9 11 14 16 17 17 17 16 16 15 15 15 14 13 12 13 13 12 10 8 7 5 4 3 2 1 2 5 10 13 11 10 13 17 18 19 20 20 20 21 22 22 22 22 21 20 21 22 21 22 23 24 26
12 13 13 12 13 17 18 18 18 18 19 21 21 20 20 22 20 18 18 19 19 18 18 20 20 18 14 14 13 12 11 10 10 10 10 13 16 17 17 16 16 16 16 16 15 15 14 13 13 13 13 13 12 10 8 6 5 4 3 1 0 2 5 9 9 9 10 13 15 16 17 17 17 19 21 22 23 22 21 22 25 25 23 25 26 25 23
14 14 14 13 14 16 17 18 18 18 20 21 21 20 20 21 19 18 18 18 17 18 18 18 18 18 16 15 14 13 13 12 12 12 14 15 16 18 19 18 16 14 13 15 17 16 15 14 14 14 14 13 13 12 10 8 6 4 3 1 1 2 4 6 7 7 8 10 12 15 17 17 17 19 21 22 23 24 23 25 27 24 22 25 28 27 24
17 16 14 14 14 16 17 17 17 17 18 20 21 21 22 22 20 20 20 19 17 18 19 19 17 17 16 16 16 15 14 14 13 14 16 16 17 18 20 19 15 11 11 15 17 17 16 16 15 15 15 13 12 12 11 9 6 4 2 0 2 4 6 7 8 7 8 10 14 17 18 16 16 19 22 22 22 22 22 23 24 22 21 23 25 26 27
18 17 15 15 15 17 17 16 17 18 19 20 21 20 19 20 20 19 18 17 17 18 19 19 17 17 18 18 17 15 15 14 15 16 18 17 17 17 17 16 16 15 15 17 17 17 18 17 16 16 16 14 12 12 11 9 7 5 3 1 3 4 6 8 9 8 9 13 15 17 17 17 17 20 22 22 21 21 21 21 20 19 21 24 24 26 32
17 16 16 17 18 19 19 18 18 19 19 19 18 17 16 16 17 17 17 17 17 17 17 17 19 21 21 18 16 15 14 14 14 16 18 18 17 17 17 15 15 17 17 17 18 18 19 20 19 18 16 15 13 12 11 10 8 6 4 3 3 5 7 9 9 9 10 11 11 13 16 18 18 19 20 20 20 21 21 21 21 20 21 21 21 26 33
13 12 14 15 15 16 17 17 16 17 17 17 17 16 16 17 18 18 19 19 17 17 18 20 23 23 20 17 16 16 13 11 10 12 14 16 16 16 16 15 15 15 16 18 20 20 20 22 22 20 17 16 15 13 11 10 9 8 6 5 4 5 6 7 8 9 10 10 10 12 14 15 15 14 16 18 20 20 21 22 23 23 21 19 20 25 32
14 13 13 14 14 15 16 16 15 16 16 17 16 16 17 20 22 22 22 21 20 20 22 24 25 23 19 16 16 14 12 11 10 11 13 15 15 15 16 16 16 16 16 19 22 22 21 22 24 21 16 15 15 14 12 10 9 8 7 7 6 5 5 6 7 9 10 10 10 11 11 12 12 13 15 17 18 19 20 22 24 23 21 20 21 25 30
15 13 12 13 16 18 17 17 17 17 16 15 15 15 17 21 23 23 22 22 23 24 25 24 23 21 18 16 14 13 13 13 13 13 15 14 14 15 15 16 18 18 15 17 23 25 22 22 22 19 15 14 14 15 14 11 9 8 7 7 7 8 8 8 9 10 10 10 10 11 11 13 14 14 14 16 18 18 19 19 19 19 19 19 22 26 29
15 15 14 14 16 18 18 18 19 19 18 17 17 17 18 21 23 23 22 22 23 24 24 23 21 19 18 17 15 15 16 17 16 16 16 15 14 15 15 16 19 17 12 14 22 25 23 22 21 18 15 14 15 15 15 13 10 9 8 8 8 9 11 11 10 12 13 14 14 14 14 15 15 14 12 14 18 19 18 18 18 17 17 18 20 23 26
16 16 16 16 17 17 18 19 19 20 20 20 20 19 19 21 23 23 21 21 22 23 23 22 20 18 18 18 16 15 17 20 20 18 17 15 14 15 15 16 17 15 12 17 23 24 23 24 22 17 15 15 16 16 15 13 11 10 9 8 8 9 11 12 12 14 16 16 16 16 15 15 15 13 12 13 15 16 17 17 17 16 16 17 17 19 20
14 15 16 17 17 17 18 19 19 20 20 20 20 20 21 22 23 22 20 20 22 23 22 22 20 18 17 18 17 16 17 20 20 19 18 16 13 12 13 15 16 16 18 23 23 21 23 26 23 17 17 17 16 16 16 13 11 9 8 8 10 10 12 12 13 13 13 14 14 15 15 14 13 12 12 13 13 13 14 14 13 12 13 15 16 16 17
13 15 17 17 17 17 18 18 18 19 20 20 20 20 22 23 23 21 20 20 22 22 22 21 20 18 17 17 17 16 17 18 18 18 18 16 13 10 10 13 17 21 26 28 24 21 24 27 25 21 21 20 17 16 15 12 10 10 9 10 10 11 12 12 12 12 12 12 12 11 11 11 11 11 12 13 13 12 12 12 11 10 10 12 13 14 14
14 15 16 16 16 17 18 18 18 19 19 19 19 20 21 22 21 20 19 20 21 22 21 20 19 18 18 18 17 17 17 17 18 17 16 15 14 10 8 11 18 24 28 28 25 21 22 25 25 25 24 21 18 16 14 11 10 11 10 10 9 9 9 11 13 13 12 10 9 9 10 10 10 11 11 11 11 11 10 10 9 9 9 9 10 10 12
16 17 17 16 16 17 18 18 18 18 18 18 19 20 21 21 20 20 19 19 20 20 20 20 19 19 18 18 18 17 16 17 18 17 15 15 15 12 9 12 18 24 28 28 24 20 21 24 26 26 23 20 18 16 13 11 10 10 10 10 9 8 8 9 11 11 10 9 9 10 11 12 11 12 12 11 11 11 11 10 9 9 9 10 10 10 10
17 17 16 16 16 17 17 18 18 18 18 18 19 19 20 20 20 20 20 20 20 20 20 20 20 20 19 18 18 16 16 17 19 18 14 13 13 14 14 15 18 23 27 27 22 18 20 24 26 24 21 17 15 14 13 11 11 10 10 10 10 9 9 8 8 8 8 9 9 9 9 10 11 11 11 11 10 10 10 10 10 10 9 9 10 9 9
16 16 16 16 17 16 16 16 17 18 18 18 17 18 19 19 19 20 20 19 20 21 21 20 20 20 20 19 17 16 15 16 18 17 15 11 10 13 18 19 19 21 25 25 20 18 20 24 25 23 19 15 13 13 12 12 12 11 11 11 11 11 10 9 9 8 8 8 8 8 8 9 10 11 10 10 10 10 9 9 10 9 9 9 9 9 8
16 16 16 16 16 16 15 16 16 17 18 18 17 16 17 18 19 19 19 19 19 20 20 21 20 20 20 19 18 17 16 15 14 14 13 10 9 13 20 21 19 20 22 22 18 18 20 23 23 21 18 15 14 14 14 14 13 13 13 12 12 12 12 12 11 11 10 9 9 9 9 9 10 10 10 10 10 10 10 9 9 9 8 8 9 9 9
15 15 15 16 16 15 15 16 15 16 17 17 15 15 16 18 18 18 18 18 18 18 19 20 20 21 21 20 18 18 17 15 11 12 13 11 10 14 19 20 19 19 20 18 17 19 21 22 22 21 19 18 17 17 17 16 16 16 16 15 15 15 15 15 14 14 14 13 12 10 10 10 10 11 11 11 11 11 11 10 9 9 8 8 8 8 8
15 15 15 15 16 15 16 15 15 14 14 13 13 14 17 18 18 17 18 18 17 16 17 18 19 20 21 20 18 17 18 16 12 11 15 15 14 15 17 18 19 20 19 16 15 19 22 22 22 22 21 21 22 21 21 20 20 20 20 19 18 17 17 17 16 17 17 16 15 15 14 14 12 12 12 12 12 11 11 10 9 9 9 8 8 8 8
14 15 15 16 15 15 15 15 14 13 13 12 13 14 17 18 17 16 17 18 17 15 15 17 18 19 20 20 18 17 17 15 12 12 16 18 16 15 17 18 19 20 18 15 14 18 22 23 22 23 23 23 24 25 25 24 23 22 21 20 18 18 19 19 18 17 18 18 18 17 17 16 16 15 13 12 12 11 11 10 9 9 8 8 8 7 7
14 15 15 15 15 15 15 14 13 12 12 13 14 15 17 17 16 15 16 18 18 16 15 15 17 18 19 19 18 18 18 17 14 14 17 18 16 16 17 17 18 19 18 15 14 17 21 22 23 23 23 23 24 24 23 23 24 24 23 21 20 19 20 20 19 18 18 19 20 20 18 17 17 18 18 16 15 14 13 12 12 11 10 9 8 8 8
13 14 14 15 14 14 14 13 12 12 13 13 13 14 15 16 15 14 15 17 17 16 14 14 15 17 18 18 18 17 19 20 19 17 17 17 17 17 17 17 17 18 18 17 16 17 19 22 23 23 22 22 22 22 21 21 22 24 24 23 22 22 21 21 20 20 19 18 18 20 21 19 19 20 20 19 18 17 16 14 13 13 12 11 10 9 9
12 13 14 14 14 14 13 12 12 12 13 13 13 13 14 14 14 14 14 15 15 15 15 14 14 15 17 18 18 17 18 20 20 20 19 19 19 19 18 18 18 18 19 18 17 17 18 20 21 21 21 20 20 20 20 20 21 21 21 21 22 23 23 22 20 19 18 15 15 16 19 19 18 18 19 18 18 18 17 15 13 12 12 12 11 11 10
12 12 12 12 12 12 12 11 11 11 12 12 12 12 13 13 13 13 14 14 14 15 14 14 13 14 16 17 17 17 17 17 18 19 20 21 21 21 20 20 20 19 19 18 18 18 18 18 19 20 20 19 19 19 19 19 19 19 19 19 19 21 23 23 20 17 15 15 15 16 17 18 18 18 18 17 17 17 17 17 16 14 13 12 11 11 11
Wind_Direction
263 264 268 269 266 263 267 271 273 274 271 263 254 251 250 250 253 259 262 263 262 264 266 266 266 264 263 267 271 277 283 284 284 286 284 283 285 285 283 284 291 300 306 305 296 278 257 244 233 226 223 222 219 215 209 204 203 200 194 193 193 194 195 195 197 205 208 208 205 202 201 203 203 201 199 197 197 197 199 200 194 186 185 187 189 189 187
274 271 267 263 258 256 258 260 263 268 270 267 262 257 253 251 253 258 263 265 264 264 265 267 271 274 274 274 275 277 279 280 284 287 284 283 285 283 280 280 286 297 308 311 305 291 274 256 240 229 222 219 217 215 211 208 204 198 194 194 195 194 196 196 198 203 206 206 204 201 199 200 200 199 198 197 197 197 198 200 194 185 183 186 188 188 187
277 270 256 250 249 253 258 261 264 268 271 269 263 258 255 253 254 255 257 262 264 261 261 265 268 270 271 271 270 272 275 277 281 280 278 280 282 281 280 280 284 295 308 313 310 300 285 266 247 234 225 220 216 212 210 208 205 199 194 194 194 195 197 198 198 202 204 204 204 201 198 199 199 197 195 195 196 196 196 199 195 185 182 184 185 187 185
280 277 264 253 248 254 261 265 269 270 268 268 266 261 255 250 252 256 255 256 260 260 260 261 259 257 258 261 265 269 271 272 271 270 274 279 281 284 288 289 291 298 305 309 307 300 292 279 257 238 227 221 215 211 209 207 203 198 196 196 196 196 199 201 200 201 203 202 202 199 197 197 197 195 194 194 195 195 195 197 196 187 182 183 184 186 186
286 295 296 264 256 267 264 266 287 289 276 274 277 274 265 255 251 254 253 250 258 267 270 267 262 259 257 259 264 269 271 272 270 269 274 277 279 287 293 292 294 297 301 304 302 295 291 286 273 250 232 223 216 211 208 205 201 199 199 198 197 196 198 201 202 201 201 201 199 196 194 195 195 194 194 194 193 193 193 195 194 188 183 182 184 188 191
290 304 311 267 266 282 271 320 326 308 291 285 284 282 278 269 258 255 257 259 264 271 271 269 269 269 268 270 272 272 275 277 275 274 276 276 280 289 292 289 289 292 296 299 297 291 286 286 282 263 241 229 221 213 207 204 201 200 200 198 196 196 197 199 201 201 200 200 196 192 191 192 193 194 194 193 192 192 191 192 192 190 185 182 185 191 195
287 302 306 290 284 285 193 328 302 289 283 283 284 283 282 279 275 270 268 267 269 270 271 271 274 275 275 276 276 274 275 276 272 271 272 273 278 285 287 286 286 290 295 295 291 287 283 285 284 266 246 232 222 213 206 203 201 200 200 198 197 198 198 199 200 200 200 199 193 191 193 193 193 194 193 191 192 192 191 190 192 192 187 184 190 196 198
288 306 312 304 294 259 168 306 295 281 281 284 287 284 273 272 284 286 281 279 277 276 277 277 276 277 276 275 272 267 264 263 261 261 264 268 274 279 281 284 287 291 293 290 286 285 283 284 282 266 248 233 221 212 205 203 202 201 201 200 199 199 199 199 198 197 198 197 192 191 192 192 191 192 191 192 193 192 192 191 191 192 191 189 194 200 200
287 309 310 301 298 303 57 326 282 257 259 265 278 285 270 254 281 289 286 285 285 285 285 281 276 277 279 274 264 255 251 253 255 257 261 266 271 274 276 282 288 291 289 286 284 283 281 281 278 266 250 234 222 214 205 201 201 200 200 201 200 200 199 198 197 196 197 196 191 190 191 190 189 190 190 191 191 189 190 191 190 191 194 191 192 195 198
286 301 308 315 321 342 23 356 328 292 270 259 247 265 278 225 230 261 269 273 276 282 289 291 289 286 277 265 260 257 253 252 254 254 258 264 269 274 277 281 285 287 286 284 284 283 281 278 272 262 248 234 223 215 208 202 200 200 201 201 200 199 199 198 197 197 198 195 189 187 189 188 187 188 189 190 191 191 192 193 191 191 193 194 191 190 192
295 311 319 322 320 353 17 351 340 332 318 298 243 247 270 192 207 239 252 258 262 266 276 285 288 281 265 256 259 264 252 246 264 275 274 276 279 282 284 284 283 285 286 287 287 283 279 274 266 253 240 232 224 217 211 204 200 200 201 202 201 197 196 198 198 198 198 194 188 187 189 188 185 187 189 188 191 194 193 192 189 188 192 197 195 190 191
318 325 325 319 319 18 7 347 339 334 326 315 291 313 318 301 257 242 230 239 250 253 261 270 271 262 257 258 270 286 282 278 287 288 282 283 286 285 285 286 286 287 288 287 284 280 276 272 260 243 232 227 222 218 213 207 204 204 202 202 201 197 195 197 200 199 194 191 189 188 188 186 182 183 185 185 188 190 191 190 188 188 192 195 193 189 191
334 331 328 332 352 45 358 343 338 332 320 310 334 335 321 317 316 304 258 255 260 257 255 254 252 253 256 261 271 281 283 283 285 282 276 279 282 282 286 291 291 289 286 281 277 277 277 272 252 231 224 222 220 218 216 211 209 207 204 202 201 198 195 196 199 198 191 188 190 189 185 182 180 182 184 185 185 185 187 188 189 192 195 195 194 195 197
337 333 334 340 355 44 355 344 339 335 330 327 330 320 307 316 328 336 334 315 303 297 286 271 261 260 260 261 262 265 269 274 279 279 276 277 279 282 287 289 287 284 282 278 274 273 272 265 245 225 218 218 220 220 219 218 216 210 205 203 200 197 195 194 196 194 189 187 187 186 182 179 179 183 186 187 185 183 186 190 190 192 192 190 193 198 202
329 335 346 348 343 352 355 348 341 342 344 331 320 317 321 331 337 337 333 325 319 317 311 302 294 284 272 264 259 259 265 271 275 277 277 279 282 284 287 286 283 281 280 278 274 271 267 258 240 226 215 212 217 220 219 220 219 211 207 204 200 197 196 194 192 191 188 186 183 182 181 179 179 182 184 186 186 184 185 188 188 187 187 187 189 192 194
336 340 343 332 322 335 348 348 329 321 327 330 330 329 329 334 335 333 331 329 327 320 310 306 307 301 286 268 259 260 267 272 274 277 277 277 280 282 284 284 283 282 278 273 270 270 268 256 239 230 220 212 214 217 217 218 216 210 207 204 200 196 193 192 191 188 184 183 182 182 181 180 182 184 184 186 187 185 183 184 184 183 184 185 187 188 188
330 305 280 288 311 329 336 332 319 318 326 337 338 330 328 332 333 330 327 327 328 320 309 310 314 309 295 277 266 265 268 272 275 276 275 276 279 281 282 282 280 277 272 267 264 265 265 256 240 231 224 217 212 212 215 217 212 206 202 201 198 194 190 191 190 185 180 181 183 182 181 182 183 184 182 182 184 184 184 183 179 177 179 182 186 187 186
330 294 271 298 324 329 324 322 322 323 330 338 334 329 332 331 323 322 323 324 324 316 309 313 321 317 307 291 275 272 272 272 273 273 273 276 277 274 276 279 281 277 269 261 257 258 261 259 246 234 227 221 214 210 213 214 209 204 201 197 192 188 186 188 188 183 180 181 181 181 182 184 185 184 182 182 182 183 184 185 182 177 173 175 180 182 185
338 322 328 342 339 326 318 323 329 331 335 338 335 334 334 324 318 322 324 324 325 318 310 315 326 327 324 309 282 272 269 271 274 277 275 274 275 277 277 278 280 276 266 257 254 255 260 266 257 239 232 228 217 210 211 211 207 203 199 193 186 183 184 186 189 188 183 178 177 180 183 185 186 186 186 185 183 181 181 179 179 178 173 172 176 178 180
327 318 336 344 332 313 311 327 336 337 337 336 334 334 330 323 323 327 328 330 333 323 317 325 334 334 339 338 312 292 284 280 283 285 279 277 287 293 287 280 275 267 258 258 260 249 250 272 278 251 240 237 223 209 208 208 204 200 196 188 184 187 189 188 189 191 186 178 175 179 184 186 186 186 185 184 183 184 185 183 181 179 176 178 180 178 174
319 324 338 342 331 309 312 330 337 338 337 335 334 332 329 328 331 334 333 336 338 331 328 335 342 345 351 359 353 336 321 311 302 291 284 283 285 283 281 281 284 275 257 257 265 232 217 324 327 269 245 241 227 213 208 207 202 197 192 186 186 192 194 191 189 186 182 177 176 180 185 189 189 187 186 185 185 189 195 195 193 190 185 184 182 179 179
327 332 335 340 334 310 311 325 331 334 336 337 336 331 330 332 335 334 332 332 335 337 337 340 346 349 351 357 5 7 355 340 327 311 301 301 294 281 289 302 23 50 76 99 89 80 65 44 35 3 255 240 224 214 209 207 204 198 192 189 190 193 195 194 188 178 172 175 179 181 183 185 186 186 187 189 191 196 203 205 202 200 199 196 191 186 188
309 314 323 331 324 306 306 317 324 330 335 338 335 333 336 336 332 328 328 328 332 339 344 347 351 351 350 352 1 10 7 351 335 321 317 333 15 355 336 6 41 51 60 75 78 73 65 53 45 30 337 272 246 231 215 209 212 206 194 187 189 193 194 192 186 181 178 177 176 176 177 180 183 185 186 190 195 201 207 208 205 204 206 205 200 197 198
300 306 318 323 316 306 306 313 319 327 336 338 333 333 337 335 327 324 325 326 329 340 348 351 351 349 348 349 352 3 9 360 347 337 334 345 6 22 24 25 21 22 40 57 63 69 73 73 72 64 39 17 344 301 245 222 226 219 200 188 190 197 198 191 187 190 193 186 177 177 179 182 186 186 183 182 186 194 204 207 206 205 206 206 205 205 205
308 310 316 316 310 306 308 312 318 328 337 338 332 330 332 331 328 326 324 325 334 346 353 353 350 350 348 342 343 359 11 8 3 358 347 345 3 22 33 32 19 9 27 46 52 56 63 74 82 77 54 38 19 342 294 252 247 237 219 207 205 206 203 193 190 194 194 185 180 181 184 187 188 187 182 175 168 161 170 191 201 202 202 204 204 204 203
315 316 318 315 310 311 320 325 326 331 337 338 334 330 332 332 328 325 326 333 342 348 354 355 349 349 350 347 349 1 2 360 8 10 356 345 2 20 30 36 32 25 33 46 49 48 49 58 68 66 50 33 19 2 345 316 271 244 231 226 223 217 210 202 196 195 194 187 182 183 187 189 188 187 186 182 171 155 150 161 177 186 192 199 202 200 200
327 328 327 323 320 326 333 331 327 328 334 339 338 334 333 333 330 330 341 350 350 350 353 354 350 350 351 352 356 358 353 353 6 10 357 350 5 16 24 31 33 32 37 44 45 43 44 47 54 57 50 37 24 12 1 353 341 290 241 230 226 223 217 210 204 201 200 193 187 186 188 188 187 188 187 182 175 167 163 161 162 166 175 184 191 196 198
335 334 331 327 323 324 326 324 324 329 334 339 341 339 337 337 338 343 352 353 349 349 352 351 352 355 351 348 353 355 352 355 2 357 350 0 11 15 20 26 29 29 31 35 37 40 42 43 45 48 43 35 29 23 13 3 358 356 341 248 207 217 216 210 204 205 205 198 193 191 190 189 189 189 184 177 173 172 170 163 157 157 163 170 178 190 199
336 331 327 324 320 320 322 325 330 337 341 342 344 346 348 347 346 348 351 348 345 347 347 347 351 355 351 348 355 360 358 356 355 355 360 7 11 15 22 30 35 36 33 32 34 40 43 41 40 40 35 29 28 29 24 15 8 6 7 5 264 223 211 204 200 202 201 197 196 194 189 183 180 177 174 173 171 166 162 159 157 158 162 164 167 174 186
332 329 327 329 331 331 333 336 338 341 344 344 344 348 352 353 350 347 345 343 343 344 343 342 346 351 351 351 355 359 358 350 346 357 9 9 7 12 20 27 32 35 33 28 26 30 36 38 38 36 30 26 28 29 28 27 23 15 15 11 279 250 219 204 199 197 191 187 188 187 181 174 168 163 161 165 166 162 160 161 161 161 163 164 164 165 166
329 330 331 337 341 340 340 341 340 340 342 345 346 348 351 353 352 347 342 341 340 339 337 338 342 346 349 352 353 355 359 355 349 358 12 15 12 13 19 27 31 28 22 21 21 21 25 30 31 29 26 25 28 29 30 35 39 29 19 24 220 228 222 210 200 192 182 177 175 173 170 165 163 161 159 160 162 162 162 163 165 163 161 161 163 163 161
332 334 338 345 347 345 344 344 341 339 342 346 347 349 350 350 348 344 340 338 337 334 333 337 339 338 341 350 356 360 5 6 2 4 12 18 18 14 17 30 40 35 26 22 21 20 21 20 19 19 20 23 29 31 30 33 44 52 56 116 176 195 202 199 192 183 176 171 168 167 165 163 162 161 161 162 163 164 164 164 163 160 160 161 162 164 166
341 342 342 344 345 343 343 342 338 337 339 342 344 345 344 343 343 343 340 337 336 336 335 335 334 332 336 348 1 6 7 9 11 14 16 18 19 14 11 21 37 40 34 27 24 23 22 16 11 11 15 18 22 29 30 30 37 51 64 89 126 147 163 172 172 165 161 160 161 163 163 161 160 161 162 163 164 164 164 162 157 154 157 161 162 166 171
345 340 335 335 336 336 336 335 333 333 334 337 340 342 342 342 343 342 341 339 338 338 336 333 331 333 339 350 0 4 6 7 14 20 18 15 14 11 8 12 25 34 35 31 25 20 16 12 11 11 14 16 20 25 28 31 37 46 54 64 86 112 131 144 149 146 145 146 150 155 156 156 158 160 160 160 162 162 159 156 156 157 158 158 158 165 173
340 338 335 334 335 334 333 333 334 334 333 335 339 339 340 341 342 342 342 342 340 338 337 334 333 336 344 353 358 359 359 360 3 11 14 13 9 5 6 12 18 21 26 27 21 13 7 9 15 17 16 17 22 27 29 33 41 48 52 56 61 68 86 110 123 127 129 134 138 142 146 149 151 152 153 155 155 154 152 152 154 156 155 154 157 164 170
342 341 340 339 338 337 337 337 337 336 335 335 336 337 337 340 342 342 341 341 342 342 340 337 336 339 347 356 359 358 356 355 356 1 9 14 12 8 13 19 16 12 14 15 11 5 1 6 15 22 20 17 22 31 37 41 47 54 62 71 75 79 86 94 103 110 114 118 122 127 134 138 136 137 143 146 145 143 143 144 145 148 150 154 159 163 166
344 344 343 342 341 339 340 340 339 339 338 337 336 338 339 340 341 340 339 341 344 345 343 340 339 340 344 351 358 3 3 359 355 356 4 14 18 19 23 22 15 11 8 0 355 353 355 3 14 24 25 19 20 27 35 44 51 56 67 82 90 92 93 92 94 101 107 111 115 117 118 121 122 123 131 137 138 139 139 138 138 142 148 153 157 160 162
343 344 344 343 343 341 341 341 340 340 341 339 339 342 343 341 339 339 340 343 346 346 344 343 342 341 343 348 353 1 4 0 356 354 358 6 19 29 32 27 20 15 2 350 346 346 353 5 14 20 22 22 22 22 29 43 53 53 61 80 88 91 94 93 91 95 100 106 113 115 113 113 117 121 125 127 128 131 135 138 141 144 145 149 155 161 163
342 343 343 344 344 343 343 342 342 343 343 342 342 343 344 342 342 341 342 345 348 348 348 347 345 346 350 351 350 354 357 356 355 356 355 357 12 35 42 35 26 14 3 359 355 350 357 9 17 18 14 16 16 14 21 39 56 55 58 74 81 85 91 92 90 91 96 100 106 110 111 114 118 120 121 121 122 124 128 131 134 135 137 146 157 164 163
342 342 342 343 343 343 344 344 343 343 344 345 345 346 345 345 345 345 345 347 348 348 350 351 350 350 351 349 346 348 351 350 352 358 360 358 3 21 36 29 15 4 2 6 5 355 358 11 20 19 14 15 14 11 15 31 49 54 58 66 72 80 92 97 97 96 95 98 102 103 103 106 110 111 113 116 117 120 124 124 123 126 129 138 151 160 161
341 341 341 342 343 343 344 344 343 343 345 347 349 350 349 348 349 349 348 348 348 347 350 354 354 350 346 344 343 344 348 350 351 357 6 10 8 6 14 16 4 356 357 4 6 359 0 10 17 17 16 18 19 19 20 27 39 48 56 63 67 76 89 98 101 100 96 96 104 108 107 108 108 108 111 114 114 116 119 117 116 122 127 130 138 150 160
340 340 340 342 343 342 342 343 344 344 345 349 352 354 353 353 353 353 350 350 351 351 350 353 355 350 345 344 344 345 350 355 353 353 6 24 26 18 6 358 352 351 355 1 4 1 3 9 13 14 15 16 20 24 28 31 37 46 54 60 68 78 85 88 93 96 91 92 103 111 116 121 121 119 119 119 118 120 125 124 119 124 136 145 148 148 153
339 339 340 341 342 341 340 341 343 343 344 348 353 356 357 357 357 356 354 354 357 357 354 352 354 354 350 348 348 349 354 357 355 352 357 16 30 29 17 358 347 349 355 360 360 358 2 6 9 11 13 18 25 30 33 34 40 47 51 56 66 78 84 88 94 96 92 95 103 109 114 120 123 123 121 119 117 119 123 124 123 123 128 139 146 146 147
337 338 338 339 339 339 339 340 341 341 342 344 348 353 358 360 360 359 357 356 358 1 359 355 355 356 355 353 352 350 350 352 356 355 352 353 8 17 11 1 352 352 357 0 0 359 1 4 7 11 16 26 36 39 37 36 40 44 46 52 60 64 66 73 83 88 88 92 100 105 108 111 114 114 112 111 112 114 113 114 119 123 124 129 134 135 134
336 337 336 336 337 339 340 340 339 337 337 337 340 348 358 2 2 1 0 358 358 2 3 1 359 359 358 355 353 348 344 348 359 5 1 353 347 351 354 355 355 356 359 3 6 4 0 4 11 19 27 36 43 43 37 33 36 41 43 45 48 49 48 50 56 64 71 78 86 95 105 109 108 107 105 104 105 108 108 109 113 118 122 131 141 145 145
336 336 336 335 336 338 339 338 336 335 335 337 340 345 352 357 0 2 2 359 357 360 4 4 3 2 1 358 356 352 347 347 1 18 15 0 341 338 344 349 353 358 3 9 12 9 5 8 17 27 36 45 50 49 43 39 43 50 51 45 41 43 46 45 46 53 64 72 74 75 82 89 92 94 96 98 100 104 107 107 109 112 115 120 131 142 148
334 335 337 336 335 335 336 336 336 338 340 342 341 342 344 348 353 359 1 359 357 359 3 4 4 5 4 4 4 2 355 348 352 9 11 0 347 344 348 351 354 1 8 12 13 12 12 16 24 32 40 46 50 51 51 50 52 55 56 52 48 49 51 51 48 49 57 69 76 76 75 74 75 78 81 84 87 92 97 101 105 110 110 111 117 127 134
332 334 335 333 332 333 335 335 336 339 342 342 339 338 339 341 345 353 359 0 359 360 4 5 4 4 4 5 7 8 4 357 352 353 356 355 352 352 355 355 356 2 7 10 11 12 14 19 27 35 41 45 48 50 52 52 51 51 51 51 49 48 50 51 49 47 52 60 67 71 72 71 72 74 77 76 72 70 73 80 89 93 93 96 104 112 115
331 332 332 331 331 333 335 334 334 336 338 339 338 337 337 338 341 348 356 360 359 359 2 4 4 3 2 4 5 6 7 8 4 353 350 353 356 358 358 357 359 3 7 9 9 10 12 17 24 32 37 40 42 44 46 48 49 50 50 49 48 49 51 52 52 54 56 58 59 61 62 63 64 68 72 74 73 69 64 62 68 77 81 83 88 93 94
331 331 331 331 332 332 331 331 332 333 334 335 337 337 337 338 340 346 352 355 357 357 359 2 5 5 2 1 1 2 5 8 8 3 358 358 1 4 4 4 4 6 10 11 9 9 12 17 22 27 31 33 34 36 38 40 44 48 50 49 49 51 55 56 56 57 55 54 55 59 59 57 58 62 63 63 66 70 68 64 66 72 73 67 62 64 68
326 327 328 329 329 327 326 326 329 332 333 333 336 338 338 337 339 345 350 353 355 356 356 357 3 6 4 1 360 0 2 5 7 8 7 5 4 6 11 13 11 10 13 15 14 13 15 18 22 25 28 31 32 33 34 35 36 40 44 46 47 49 52 54 54 53 49 45 48 55 55 52 53 56 56 53 56 63 66 63 61 61 59 56 55 58 60
321 323 324 325 325 325 324 324 327 332 334 335 337 340 339 336 337 343 349 353 356 358 356 353 356 2 4 2 360 359 359 1 4 7 11 13 12 11 13 15 14 12 13 17 18 17 17 20 23 26 27 29 30 31 33 35 35 36 37 40 42 45 48 47 46 44 43 43 44 47 48 45 44 46 46 43 45 51 57 58 58 59 59 59 63 68 69